Time,TemperatureF,DewpointF,PressureIn,WindDirection,WindDirectionDegrees,WindSpeedMPH,WindSpeedGustMPH,Humidity,HourlyPrecipIn,Conditions,Clouds,dailyrainin,SolarRadiationWatts/m^2,SoftwareType,DateUTC
2013-01-03 00:00:00,24.0,15.6,30.20,SW,225,4.0,6.0,70,-99.99,,,0.00,0.00,VWS V14.01,2013-01-03 05:00:00,
2013-01-03 00:02:00,24.0,15.6,30.20,SW,225,6.0,7.0,70,-99.99,,,0.00,0.00,VWS V14.01,2013-01-03 05:02:00,
2013-01-03 00:03:00,24.0,15.6,30.20,SW,225,3.0,5.0,70,-99.99,,,0.00,0.00,VWS V14.01,2013-01-03 05:03:00,
2013-01-03 00:08:00,25.0,16.6,30.20,SSW,202,1.0,4.0,70,-99.99,,,0.00,0.00,VWS V14.01,2013-01-03 05:08:00,
2013-01-03 00:13:00,24.0,15.3,30.19,SW,225,5.0,6.0,69,-99.99,,,0.00,0.00,VWS V14.01,2013-01-03 05:13:00,
2013-01-03 00:18:00,24.0,15.3,30.20,WSW,248,6.0,6.0,69,-99.99,,,0.00,0.00,VWS V14.01,2013-01-03 05:18:00,
2013-01-03 00:23:00,24.0,15.6,30.19,WSW,248,6.0,6.0,70,-99.99,,,0.00,0.00,VWS V14.01,2013-01-03 05:23:00,
2013-01-03 00:28:00,23.0,15.0,30.19,WSW,248,4.0,5.0,71,-99.99,,,0.00,0.00,VWS V14.01,2013-01-03 05:28:00,
2013-01-03 00:33:00,24.0,16.0,30.18,SW,225,3.0,4.0,71,-99.99,,,0.00,0.00,VWS V14.01,2013-01-03 05:33:00,
2013-01-03 00:38:00,24.0,16.0,30.18,West,270,1.0,3.0,71,-99.99,,,0.00,0.00,VWS V14.01,2013-01-03 05:38:00,
2013-01-03 00:43:00,25.0,16.9,30.19,West,270,1.0,1.0,71,-99.99,,,0.00,0.00,VWS V14.01,2013-01-03 05:43:00,
2013-01-03 00:48:00,24.0,15.6,30.19,SSW,202,2.0,2.0,70,-99.99,,,0.00,0.00,VWS V14.01,2013-01-03 05:48:00,
2013-01-03 00:53:00,25.0,16.6,30.19,SSW,202,1.0,2.0,70,-99.99,,,0.00,0.00,VWS V14.01,2013-01-03 05:53:00,
2013-01-03 00:58:00,25.0,16.6,30.19,WSW,248,3.0,3.0,70,-99.99,,,0.00,0.00,VWS V14.01,2013-01-03 05:58:00,
2013-01-03 01:03:00,25.0,16.6,30.19,West,270,4.0,5.0,70,-99.99,,,0.00,0.00,VWS V14.01,2013-01-03 06:03:00,
2013-01-03 01:08:00,25.0,16.6,30.18,WSW,248,2.0,3.0,70,-99.99,,,0.00,0.00,VWS V14.01,2013-01-03 06:08:00,
2013-01-03 01:13:00,25.0,16.3,30.19,SW,225,1.0,3.0,69,-99.99,,,0.00,0.00,VWS V14.01,2013-01-03 06:13:00,
2013-01-03 01:18:00,24.0,15.6,30.19,SSW,202,1.0,1.0,70,-99.99,,,0.00,0.00,VWS V14.01,2013-01-03 06:18:00,
2013-01-03 01:23:00,24.0,16.0,30.18,SSW,202,1.0,1.0,71,-99.99,,,0.00,0.00,VWS V14.01,2013-01-03 06:23:00,
2013-01-03 01:28:00,24.0,16.0,30.18,WSW,248,2.0,2.0,71,-99.99,,,0.00,0.00,VWS V14.01,2013-01-03 06:28:00,
2013-01-03 01:33:00,24.0,16.0,30.18,WSW,248,1.0,2.0,71,-99.99,,,0.00,0.00,VWS V14.01,2013-01-03 06:33:00,
2013-01-03 01:38:00,24.0,16.3,30.18,SW,225,2.0,3.0,72,-99.99,,,0.00,0.00,VWS V14.01,2013-01-03 06:38:00,
2013-01-03 01:43:00,24.0,16.0,30.18,SW,225,1.0,3.0,71,-99.99,,,0.00,0.00,VWS V14.01,2013-01-03 06:43:00,
2013-01-03 01:48:00,24.0,16.0,30.18,South,180,2.0,3.0,71,-99.99,,,0.00,0.00,VWS V14.01,2013-01-03 06:48:00,
2013-01-03 01:53:00,24.0,16.0,30.18,South,180,2.0,3.0,71,-99.99,,,0.00,0.00,VWS V14.01,2013-01-03 06:53:00,
2013-01-03 01:58:00,24.0,16.3,30.18,SSW,202,2.0,4.0,72,-99.99,,,0.00,0.00,VWS V14.01,2013-01-03 06:58:00,
2013-01-03 02:03:00,24.0,16.3,30.19,SW,225,3.0,3.0,72,-99.99,,,0.00,0.00,VWS V14.01,2013-01-03 07:03:00,
2013-01-03 02:08:00,24.0,16.3,30.19,SW,225,5.0,5.0,72,-99.99,,,0.00,0.00,VWS V14.01,2013-01-03 07:08:00,
2013-01-03 02:13:00,24.0,16.6,30.19,SSW,202,1.0,3.0,73,-99.99,,,0.00,0.00,VWS V14.01,2013-01-03 07:13:00,
2013-01-03 02:18:00,24.0,16.9,30.20,SW,225,1.0,2.0,74,-99.99,,,0.00,0.00,VWS V14.01,2013-01-03 07:18:00,
2013-01-03 02:23:00,24.0,16.6,30.20,SW,225,2.0,3.0,73,-99.99,,,0.00,0.00,VWS V14.01,2013-01-03 07:23:00,
2013-01-03 02:28:00,24.0,16.3,30.19,WSW,248,2.0,4.0,72,-99.99,,,0.00,0.00,VWS V14.01,2013-01-03 07:28:00,
2013-01-03 02:33:00,24.0,16.0,30.19,WSW,248,4.0,5.0,71,-99.99,,,0.00,0.00,VWS V14.01,2013-01-03 07:33:00,
2013-01-03 02:38:00,23.0,15.3,30.20,SW,225,4.0,5.0,72,-99.99,,,0.00,0.00,VWS V14.01,2013-01-03 07:38:00,
2013-01-03 02:43:00,23.0,15.3,30.20,SW,225,4.0,4.0,72,-99.99,,,0.00,0.00,VWS V14.01,2013-01-03 07:43:00,
2013-01-03 02:48:00,23.0,15.0,30.19,SW,225,3.0,7.0,71,-99.99,,,0.00,0.00,VWS V14.01,2013-01-03 07:48:00,
2013-01-03 02:53:00,23.0,15.3,30.19,SW,225,5.0,5.0,72,-99.99,,,0.00,0.00,VWS V14.01,2013-01-03 07:53:00,
2013-01-03 02:58:00,23.0,15.3,30.19,SSE,158,2.0,2.0,72,-99.99,,,0.00,0.00,VWS V14.01,2013-01-03 07:58:00,
2013-01-03 03:03:00,23.0,15.3,30.19,SSE,158,1.0,3.0,72,-99.99,,,0.00,0.00,VWS V14.01,2013-01-03 08:03:00,
2013-01-03 03:08:00,23.0,15.6,30.19,SSW,202,2.0,3.0,73,-99.99,,,0.00,0.00,VWS V14.01,2013-01-03 08:08:00,
2013-01-03 03:13:00,23.0,16.0,30.19,SW,225,3.0,4.0,74,-99.99,,,0.00,0.00,VWS V14.01,2013-01-03 08:13:00,
2013-01-03 03:18:00,23.0,16.0,30.19,SW,225,3.0,5.0,74,-99.99,,,0.00,0.00,VWS V14.01,2013-01-03 08:18:00,
2013-01-03 03:23:00,23.0,15.6,30.19,WSW,248,3.0,4.0,73,-99.99,,,0.00,0.00,VWS V14.01,2013-01-03 08:23:00,
2013-01-03 03:28:00,23.0,15.6,30.19,WSW,248,0.0,1.0,73,-99.99,,,0.00,0.00,VWS V14.01,2013-01-03 08:28:00,
2013-01-03 03:33:00,23.0,15.6,30.18,SW,225,3.0,3.0,73,-99.99,,,0.00,0.00,VWS V14.01,2013-01-03 08:33:00,
2013-01-03 03:38:00,23.0,15.3,30.18,WSW,248,3.0,4.0,72,-99.99,,,0.00,0.00,VWS V14.01,2013-01-03 08:38:00,
2013-01-03 03:43:00,23.0,15.6,30.18,SSW,202,1.0,2.0,73,-99.99,,,0.00,0.00,VWS V14.01,2013-01-03 08:43:00,
2013-01-03 03:48:00,23.0,16.0,30.18,SW,225,2.0,2.0,74,-99.99,,,0.00,0.00,VWS V14.01,2013-01-03 08:48:00,
2013-01-03 03:53:00,23.0,15.3,30.18,WSW,248,4.0,4.0,72,-99.99,,,0.00,0.00,VWS V14.01,2013-01-03 08:53:00,
2013-01-03 03:58:00,22.0,14.7,30.18,WSW,248,3.0,5.0,73,-99.99,,,0.00,0.00,VWS V14.01,2013-01-03 08:58:00,
2013-01-03 04:03:00,22.0,15.0,30.18,WSW,248,3.0,6.0,74,-99.99,,,0.00,0.00,VWS V14.01,2013-01-03 09:03:00,
2013-01-03 04:08:00,22.0,15.3,30.18,WSW,248,4.0,5.0,75,-99.99,,,0.00,0.00,VWS V14.01,2013-01-03 09:08:00,
2013-01-03 04:13:00,22.0,15.3,30.18,WSW,248,5.0,5.0,75,-99.99,,,0.00,0.00,VWS V14.01,2013-01-03 09:13:00,
2013-01-03 04:18:00,22.0,15.6,30.18,SW,225,6.0,6.0,76,-99.99,,,0.00,0.00,VWS V14.01,2013-01-03 09:18:00,
2013-01-03 04:23:00,22.0,15.3,30.18,SW,225,4.0,6.0,75,-99.99,,,0.00,0.00,VWS V14.01,2013-01-03 09:23:00,
2013-01-03 04:28:00,23.0,16.3,30.17,WSW,248,3.0,3.0,75,-99.99,,,0.00,0.00,VWS V14.01,2013-01-03 09:28:00,
2013-01-03 04:33:00,22.0,15.0,30.17,West,270,4.0,4.0,74,-99.99,,,0.00,0.00,VWS V14.01,2013-01-03 09:33:00,
2013-01-03 04:38:00,22.0,15.3,30.17,SW,225,2.0,3.0,75,-99.99,,,0.00,0.00,VWS V14.01,2013-01-03 09:38:00,
2013-01-03 04:43:00,23.0,16.3,30.18,SW,225,1.0,3.0,75,-99.99,,,0.00,0.00,VWS V14.01,2013-01-03 09:43:00,
2013-01-03 04:48:00,23.0,16.0,30.17,WSW,248,3.0,3.0,74,-99.99,,,0.00,0.00,VWS V14.01,2013-01-03 09:48:00,
2013-01-03 04:53:00,23.0,16.0,30.17,SW,225,3.0,4.0,74,-99.99,,,0.00,0.00,VWS V14.01,2013-01-03 09:53:00,
2013-01-03 04:58:00,23.0,16.0,30.17,SSE,158,1.0,1.0,74,-99.99,,,0.00,0.00,VWS V14.01,2013-01-03 09:58:00,
2013-01-03 05:03:00,22.0,15.3,30.17,SSW,202,0.0,1.0,75,-99.99,,,0.00,0.00,VWS V14.01,2013-01-03 10:03:00,
2013-01-03 05:08:00,22.0,15.9,30.17,SW,225,3.0,3.0,77,-99.99,,,0.00,0.00,VWS V14.01,2013-01-03 10:08:00,
2013-01-03 05:13:00,21.0,14.9,30.18,SSW,202,3.0,3.0,77,-99.99,,,0.00,0.00,VWS V14.01,2013-01-03 10:13:00,
2013-01-03 05:18:00,21.0,15.2,30.18,SW,225,4.0,5.0,78,-99.99,,,0.00,0.00,VWS V14.01,2013-01-03 10:18:00,
2013-01-03 05:23:00,21.0,15.2,30.18,WSW,248,3.0,4.0,78,-99.99,,,0.00,0.00,VWS V14.01,2013-01-03 10:23:00,
2013-01-03 05:28:00,21.0,15.2,30.18,SSW,202,3.0,6.0,78,-99.99,,,0.00,0.00,VWS V14.01,2013-01-03 10:28:00,
2013-01-03 05:33:00,21.0,15.2,30.18,SW,225,3.0,8.0,78,-99.99,,,0.00,0.00,VWS V14.01,2013-01-03 10:33:00,
2013-01-03 05:38:00,21.0,15.2,30.19,SW,225,2.0,7.0,78,-99.99,,,0.00,0.00,VWS V14.01,2013-01-03 10:38:00,
2013-01-03 05:43:00,21.0,15.2,30.19,SSW,202,5.0,6.0,78,-99.99,,,0.00,0.00,VWS V14.01,2013-01-03 10:43:00,
2013-01-03 05:48:00,21.0,15.2,30.19,SSW,202,4.0,4.0,78,-99.99,,,0.00,0.00,VWS V14.01,2013-01-03 10:48:00,
2013-01-03 05:53:00,21.0,15.5,30.19,SSW,202,2.0,4.0,79,-99.99,,,0.00,0.00,VWS V14.01,2013-01-03 10:53:00,
2013-01-03 05:58:00,21.0,15.5,30.19,SE,135,2.0,4.0,79,-99.99,,,0.00,0.00,VWS V14.01,2013-01-03 10:58:00,
2013-01-03 06:03:00,21.0,15.5,30.19,SW,225,3.0,3.0,79,-99.99,,,0.00,0.00,VWS V14.01,2013-01-03 11:03:00,
2013-01-03 06:08:00,21.0,15.5,30.19,WSW,248,1.0,2.0,79,-99.99,,,0.00,0.00,VWS V14.01,2013-01-03 11:08:00,
2013-01-03 06:13:00,21.0,15.5,30.19,SW,225,1.0,2.0,79,-99.99,,,0.00,0.00,VWS V14.01,2013-01-03 11:13:00,
2013-01-03 06:18:00,21.0,15.2,30.19,SW,225,0.0,2.0,78,-99.99,,,0.00,0.00,VWS V14.01,2013-01-03 11:18:00,
2013-01-03 06:23:00,21.0,15.2,30.19,SW,225,1.0,2.0,78,-99.99,,,0.00,0.00,VWS V14.01,2013-01-03 11:23:00,
2013-01-03 06:28:00,21.0,15.2,30.19,SW,225,0.0,2.0,78,-99.99,,,0.00,0.00,VWS V14.01,2013-01-03 11:28:00,
2013-01-03 06:33:00,21.0,15.5,30.18,SSW,202,1.0,2.0,79,-99.99,,,0.00,0.00,VWS V14.01,2013-01-03 11:33:00,
2013-01-03 06:38:00,21.0,15.5,30.18,WSW,248,1.0,1.0,79,-99.99,,,0.00,0.00,VWS V14.01,2013-01-03 11:38:00,
2013-01-03 06:43:00,21.0,15.5,30.18,SW,225,1.0,2.0,79,-99.99,,,0.00,0.00,VWS V14.01,2013-01-03 11:43:00,
2013-01-03 06:48:00,21.0,15.8,30.18,SW,225,1.0,2.0,80,-99.99,,,0.00,0.00,VWS V14.01,2013-01-03 11:48:00,
2013-01-03 06:53:00,21.0,15.8,30.18,WSW,248,1.0,3.0,80,-99.99,,,0.00,0.00,VWS V14.01,2013-01-03 11:53:00,
2013-01-03 06:59:00,21.0,16.1,30.18,SW,225,2.0,2.0,81,-99.99,,,0.00,0.00,VWS V14.01,2013-01-03 11:59:00,
2013-01-03 07:03:00,21.0,16.1,30.18,SSW,202,0.0,1.0,81,-99.99,,,0.00,0.00,VWS V14.01,2013-01-03 12:03:00,
2013-01-03 07:08:00,20.0,15.4,30.18,SSW,202,0.0,0.0,82,-99.99,,,0.00,0.00,VWS V14.01,2013-01-03 12:08:00,
2013-01-03 07:14:00,20.0,15.7,30.18,SW,225,0.0,1.0,83,-99.99,,,0.00,0.00,VWS V14.01,2013-01-03 12:14:00,
2013-01-03 07:19:00,20.0,15.9,30.18,SW,225,3.0,3.0,84,-99.99,,,0.00,0.00,VWS V14.01,2013-01-03 12:19:00,
2013-01-03 07:24:00,20.0,15.7,30.18,WSW,248,1.0,2.0,83,-99.99,,,0.00,0.00,VWS V14.01,2013-01-03 12:24:00,
2013-01-03 07:29:00,20.0,15.9,30.18,South,180,0.0,1.0,84,-99.99,,,0.00,0.00,VWS V14.01,2013-01-03 12:29:00,
2013-01-03 07:34:00,19.0,15.0,30.17,SSE,158,1.0,1.0,84,-99.99,,,0.00,10.00,VWS V14.01,2013-01-03 12:34:00,
2013-01-03 07:39:00,19.0,15.2,30.17,SE,135,0.0,1.0,85,-99.99,,,0.00,10.00,VWS V14.01,2013-01-03 12:39:00,
2013-01-03 07:44:00,18.0,14.5,30.18,South,180,2.0,2.0,86,-99.99,,,0.00,40.00,VWS V14.01,2013-01-03 12:44:00,
2013-01-03 07:49:00,18.0,14.8,30.17,SSW,202,1.0,1.0,87,-99.99,,,0.00,50.00,VWS V14.01,2013-01-03 12:49:00,
2013-01-03 07:54:00,19.0,15.8,30.17,SW,225,3.0,3.0,87,-99.99,,,0.00,30.00,VWS V14.01,2013-01-03 12:54:00,
2013-01-03 07:59:00,19.0,15.5,30.17,SSW,202,1.0,2.0,86,-99.99,,,0.00,60.00,VWS V14.01,2013-01-03 12:59:00,
2013-01-03 08:04:00,19.0,15.2,30.17,SSW,202,2.0,3.0,85,-99.99,,,0.00,50.00,VWS V14.01,2013-01-03 13:04:00,
2013-01-03 08:09:00,19.0,15.2,30.17,SSW,202,2.0,3.0,85,-99.99,,,0.00,30.00,VWS V14.01,2013-01-03 13:09:00,
2013-01-03 08:14:00,18.0,14.5,30.17,SSW,202,1.0,1.0,86,-99.99,,,0.00,30.00,VWS V14.01,2013-01-03 13:14:00,
2013-01-03 08:19:00,18.0,14.8,30.17,South,180,1.0,3.0,87,-99.99,,,0.00,50.00,VWS V14.01,2013-01-03 13:19:00,
2013-01-03 08:23:00,18.0,15.1,30.18,SSW,202,0.0,4.0,88,-99.99,,,0.00,130.00,VWS V14.01,2013-01-03 13:23:00,
2013-01-03 08:28:00,19.0,16.0,30.18,SSW,202,1.0,3.0,88,-99.99,,,0.00,120.00,VWS V14.01,2013-01-03 13:28:00,
2013-01-03 08:33:00,19.0,16.0,30.18,SW,225,1.0,3.0,88,-99.99,,,0.00,140.00,VWS V14.01,2013-01-03 13:33:00,
2013-01-03 08:38:00,19.0,15.8,30.18,SSW,202,1.0,3.0,87,-99.99,,,0.00,170.00,VWS V14.01,2013-01-03 13:38:00,
2013-01-03 08:43:00,19.0,15.5,30.18,SSW,202,1.0,2.0,86,-99.99,,,0.00,200.00,VWS V14.01,2013-01-03 13:43:00,
2013-01-03 08:48:00,19.0,15.2,30.19,SSE,158,1.0,3.0,85,-99.99,,,0.00,170.00,VWS V14.01,2013-01-03 13:48:00,
2013-01-03 08:53:00,20.0,16.2,30.18,South,180,1.0,1.0,85,-99.99,,,0.00,220.00,VWS V14.01,2013-01-03 13:53:00,
2013-01-03 08:59:00,20.0,15.9,30.18,SSW,202,2.0,2.0,84,-99.99,,,0.00,230.00,VWS V14.01,2013-01-03 13:59:00,
2013-01-03 09:04:00,20.0,15.7,30.19,South,180,1.0,3.0,83,-99.99,,,0.00,240.00,VWS V14.01,2013-01-03 14:04:00,
2013-01-03 09:09:00,20.0,15.4,30.19,SE,135,2.0,4.0,82,-99.99,,,0.00,250.00,VWS V14.01,2013-01-03 14:09:00,
2013-01-03 09:13:00,21.0,16.4,30.18,SE,135,2.0,4.0,82,-99.99,,,0.00,250.00,VWS V14.01,2013-01-03 14:13:00,
2013-01-03 09:18:00,20.0,15.4,30.19,SSW,202,4.0,5.0,82,-99.99,,,0.00,190.00,VWS V14.01,2013-01-03 14:18:00,
2013-01-03 09:23:00,20.0,15.4,30.19,South,180,6.0,7.0,82,-99.99,,,0.00,260.00,VWS V14.01,2013-01-03 14:23:00,
2013-01-03 09:28:00,20.0,15.4,30.19,South,180,2.0,5.0,82,-99.99,,,0.00,240.00,VWS V14.01,2013-01-03 14:28:00,
2013-01-03 09:33:00,20.0,15.4,30.19,SSW,202,3.0,6.0,82,-99.99,,,0.00,160.00,VWS V14.01,2013-01-03 14:33:00,
2013-01-03 09:38:00,20.0,15.4,30.19,South,180,4.0,5.0,82,-99.99,,,0.00,250.00,VWS V14.01,2013-01-03 14:38:00,
2013-01-03 09:43:00,20.0,15.1,30.19,SE,135,4.0,7.0,81,-99.99,,,0.00,290.00,VWS V14.01,2013-01-03 14:43:00,
2013-01-03 09:48:00,20.0,15.4,30.19,ESE,112,4.0,7.0,82,-99.99,,,0.00,120.00,VWS V14.01,2013-01-03 14:48:00,
2013-01-03 09:53:00,21.0,16.4,30.19,ESE,112,3.0,4.0,82,-99.99,,,0.00,60.00,VWS V14.01,2013-01-03 14:53:00,
2013-01-03 09:58:00,21.0,16.1,30.19,SSE,158,4.0,4.0,81,-99.99,,,0.00,210.00,VWS V14.01,2013-01-03 14:58:00,
2013-01-03 10:04:00,21.0,15.8,30.19,SSE,158,6.0,7.0,80,-99.99,,,0.00,320.00,VWS V14.01,2013-01-03 15:04:00,
2013-01-03 10:09:00,21.0,15.5,30.19,South,180,2.0,9.0,79,-99.99,,,0.00,330.00,VWS V14.01,2013-01-03 15:09:00,
2013-01-03 10:14:00,22.0,16.5,30.19,WSW,248,4.0,6.0,79,-99.99,,,0.00,260.00,VWS V14.01,2013-01-03 15:14:00,
2013-01-03 10:19:00,23.0,16.9,30.20,SW,225,5.0,8.0,77,-99.99,,,0.00,340.00,VWS V14.01,2013-01-03 15:19:00,
2013-01-03 10:24:00,23.0,16.3,30.19,SSW,202,4.0,8.0,75,-99.99,,,0.00,350.00,VWS V14.01,2013-01-03 15:24:00,
2013-01-03 10:29:00,23.0,16.3,30.19,SW,225,5.0,9.0,75,-99.99,,,0.00,350.00,VWS V14.01,2013-01-03 15:29:00,
2013-01-03 10:34:00,24.0,17.2,30.19,ESE,112,3.0,5.0,75,-99.99,,,0.00,360.00,VWS V14.01,2013-01-03 15:34:00,
2013-01-03 10:39:00,23.0,15.6,30.19,SSE,158,7.0,10.0,73,-99.99,,,0.00,360.00,VWS V14.01,2013-01-03 15:39:00,
2013-01-03 10:44:00,24.0,16.9,30.19,SSE,158,4.0,8.0,74,-99.99,,,0.00,370.00,VWS V14.01,2013-01-03 15:44:00,
2013-01-03 10:49:00,23.0,15.6,30.19,South,180,4.0,9.0,73,-99.99,,,0.00,210.00,VWS V14.01,2013-01-03 15:49:00,
2013-01-03 10:54:00,23.0,15.6,30.18,SSE,158,7.0,10.0,73,-99.99,,,0.00,360.00,VWS V14.01,2013-01-03 15:54:00,
2013-01-03 10:59:00,25.0,17.6,30.18,WSW,248,6.0,7.0,73,-99.99,,,0.00,370.00,VWS V14.01,2013-01-03 15:59:00,
2013-01-03 11:04:00,25.0,16.9,30.18,ESE,112,3.0,8.0,71,-99.99,,,0.00,380.00,VWS V14.01,2013-01-03 16:04:00,
2013-01-03 11:09:00,25.0,16.6,30.18,SSE,158,5.0,7.0,70,-99.99,,,0.00,380.00,VWS V14.01,2013-01-03 16:09:00,
2013-01-03 11:14:00,25.0,16.3,30.17,WSW,248,2.0,5.0,69,-99.99,,,0.00,390.00,VWS V14.01,2013-01-03 16:14:00,
2013-01-03 11:19:00,25.0,16.3,30.17,SSW,202,7.0,8.0,69,-99.99,,,0.00,390.00,VWS V14.01,2013-01-03 16:19:00,
2013-01-03 11:24:00,26.0,16.9,30.17,WSW,248,7.0,9.0,68,-99.99,,,0.00,380.00,VWS V14.01,2013-01-03 16:24:00,
2013-01-03 11:29:00,25.0,15.6,30.17,SW,225,7.0,12.0,67,-99.99,,,0.00,380.00,VWS V14.01,2013-01-03 16:29:00,
2013-01-03 11:34:00,25.0,15.9,30.16,SW,225,5.0,8.0,68,-99.99,,,0.00,390.00,VWS V14.01,2013-01-03 16:34:00,
2013-01-03 11:39:00,26.0,16.9,30.16,SSW,202,7.0,12.0,68,-99.99,,,0.00,390.00,VWS V14.01,2013-01-03 16:39:00,
2013-01-03 11:44:00,26.0,16.6,30.15,SSE,158,8.0,11.0,67,-99.99,,,0.00,380.00,VWS V14.01,2013-01-03 16:44:00,
2013-01-03 11:49:00,25.0,15.6,30.15,SSW,202,13.0,13.0,67,-99.99,,,0.00,390.00,VWS V14.01,2013-01-03 16:49:00,
2013-01-03 11:54:00,26.0,16.6,30.15,SSW,202,10.0,11.0,67,-99.99,,,0.00,390.00,VWS V14.01,2013-01-03 16:54:00,
2013-01-03 11:59:00,26.0,16.6,30.14,SE,135,4.0,11.0,67,-99.99,,,0.00,390.00,VWS V14.01,2013-01-03 16:59:00,
2013-01-03 12:04:00,27.0,17.2,30.14,South,180,5.0,7.0,66,-99.99,,,0.00,390.00,VWS V14.01,2013-01-03 17:04:00,
2013-01-03 12:09:00,27.0,16.1,30.14,SSW,202,10.0,15.0,63,-99.99,,,0.00,390.00,VWS V14.01,2013-01-03 17:09:00,
2013-01-03 12:14:00,27.0,16.1,30.13,SSW,202,9.0,11.0,63,-99.99,,,0.00,390.00,VWS V14.01,2013-01-03 17:14:00,
2013-01-03 12:19:00,27.0,16.1,30.13,South,180,4.0,10.0,63,-99.99,,,0.00,390.00,VWS V14.01,2013-01-03 17:19:00,
2013-01-03 12:24:00,28.0,16.3,30.12,South,180,4.0,12.0,61,-99.99,,,0.00,390.00,VWS V14.01,2013-01-03 17:24:00,
2013-01-03 12:28:00,27.0,14.6,30.12,SW,225,7.0,10.0,59,-99.99,,,0.00,390.00,VWS V14.01,2013-01-03 17:28:00,
2013-01-03 12:34:00,27.0,14.6,30.12,ESE,112,4.0,18.0,59,-99.99,,,0.00,380.00,VWS V14.01,2013-01-03 17:34:00,
2013-01-03 12:38:00,27.0,14.2,30.12,SSW,202,9.0,14.0,58,-99.99,,,0.00,380.00,VWS V14.01,2013-01-03 17:38:00,
2013-01-03 12:44:00,28.0,15.5,30.12,SW,225,5.0,7.0,59,-99.99,,,0.00,380.00,VWS V14.01,2013-01-03 17:44:00,
2013-01-03 12:48:00,28.0,15.1,30.11,SW,225,5.0,9.0,58,-99.99,,,0.00,380.00,VWS V14.01,2013-01-03 17:48:00,
2013-01-03 12:53:00,29.0,16.5,30.11,SSE,158,5.0,9.0,59,-99.99,,,0.00,370.00,VWS V14.01,2013-01-03 17:53:00,
2013-01-03 12:58:00,28.0,15.9,30.11,SE,135,7.0,9.0,60,-99.99,,,0.00,370.00,VWS V14.01,2013-01-03 17:58:00,
2013-01-03 13:03:00,28.0,15.9,30.11,SE,135,5.0,11.0,60,-99.99,,,0.00,370.00,VWS V14.01,2013-01-03 18:03:00,
2013-01-03 13:08:00,29.0,16.5,30.10,South,180,7.0,12.0,59,-99.99,,,0.00,360.00,VWS V14.01,2013-01-03 18:08:00,
2013-01-03 13:13:00,29.0,16.1,30.10,SSE,158,3.0,9.0,58,-99.99,,,0.00,360.00,VWS V14.01,2013-01-03 18:13:00,
2013-01-03 13:18:00,30.0,17.0,30.10,SE,135,6.0,8.0,58,-99.99,,,0.00,350.00,VWS V14.01,2013-01-03 18:18:00,
2013-01-03 13:23:00,29.0,15.3,30.10,SSE,158,5.0,10.0,56,-99.99,,,0.00,350.00,VWS V14.01,2013-01-03 18:23:00,
2013-01-03 13:28:00,29.0,14.4,30.10,SW,225,6.0,10.0,54,-99.99,,,0.00,340.00,VWS V14.01,2013-01-03 18:28:00,
2013-01-03 13:33:00,30.0,15.8,30.10,SSW,202,9.0,9.0,55,-99.99,,,0.00,340.00,VWS V14.01,2013-01-03 18:33:00,
2013-01-03 13:38:00,29.0,14.4,30.09,SW,225,14.0,16.0,54,-99.99,,,0.00,330.00,VWS V14.01,2013-01-03 18:38:00,
2013-01-03 13:43:00,29.0,14.4,30.09,SSW,202,10.0,15.0,54,-99.99,,,0.00,330.00,VWS V14.01,2013-01-03 18:43:00,
2013-01-03 13:49:00,29.0,14.4,30.09,SW,225,9.0,12.0,54,-99.99,,,0.00,320.00,VWS V14.01,2013-01-03 18:49:00,
2013-01-03 13:54:00,29.0,14.4,30.09,SW,225,10.0,19.0,54,-99.99,,,0.00,320.00,VWS V14.01,2013-01-03 18:54:00,
2013-01-03 13:59:00,30.0,15.8,30.09,SSW,202,12.0,14.0,55,-99.99,,,0.00,310.00,VWS V14.01,2013-01-03 18:59:00,
2013-01-03 14:04:00,29.0,14.4,30.08,West,270,12.0,13.0,54,-99.99,,,0.00,310.00,VWS V14.01,2013-01-03 19:04:00,
2013-01-03 14:09:00,29.0,14.4,30.08,SW,225,10.0,14.0,54,-99.99,,,0.00,300.00,VWS V14.01,2013-01-03 19:09:00,
2013-01-03 14:14:00,29.0,14.4,30.08,WSW,248,13.0,20.0,54,-99.99,,,0.00,290.00,VWS V14.01,2013-01-03 19:14:00,
2013-01-03 14:19:00,29.0,14.4,30.09,SSW,202,9.0,16.0,54,-99.99,,,0.00,290.00,VWS V14.01,2013-01-03 19:19:00,
2013-01-03 14:55:00,31.0,16.3,30.08,SSE,158,4.0,8.0,54,-99.99,,,0.00,240.00,VWS V14.01,2013-01-03 19:55:00,
2013-01-03 15:00:00,31.0,15.9,30.08,SW,225,4.0,4.0,53,-99.99,,,0.00,260.00,VWS V14.01,2013-01-03 20:00:00,
2013-01-03 15:05:00,31.0,15.9,30.08,SSW,202,6.0,7.0,53,-99.99,,,0.00,240.00,VWS V14.01,2013-01-03 20:05:00,
2013-01-03 15:10:00,30.0,15.4,30.08,South,180,8.0,8.0,54,-99.99,,,0.00,230.00,VWS V14.01,2013-01-03 20:10:00,
2013-01-03 15:15:00,31.0,16.7,30.08,SSE,158,4.0,6.0,55,-99.99,,,0.00,210.00,VWS V14.01,2013-01-03 20:15:00,
2013-01-03 15:20:00,31.0,16.3,30.08,SSE,158,4.0,7.0,54,-99.99,,,0.00,190.00,VWS V14.01,2013-01-03 20:20:00,
2013-01-03 15:25:00,32.0,17.7,30.08,SW,225,3.0,5.0,55,-99.99,,,0.00,190.00,VWS V14.01,2013-01-03 20:25:00,
2013-01-03 15:30:00,32.0,17.2,30.08,SW,225,9.0,10.0,54,-99.99,,,0.00,180.00,VWS V14.01,2013-01-03 20:30:00,
2013-01-03 15:35:00,31.0,16.7,30.08,SSW,202,5.0,10.0,55,-99.99,,,0.00,180.00,VWS V14.01,2013-01-03 20:35:00,
2013-01-03 15:40:00,31.0,16.7,30.08,West,270,6.0,11.0,55,-99.99,,,0.00,190.00,VWS V14.01,2013-01-03 20:40:00,
2013-01-03 15:45:00,31.0,16.7,30.08,SW,225,8.0,12.0,55,-99.99,,,0.00,180.00,VWS V14.01,2013-01-03 20:45:00,
2013-01-03 15:50:00,31.0,17.2,30.08,SSW,202,5.0,12.0,56,-99.99,,,0.00,180.00,VWS V14.01,2013-01-03 20:50:00,
2013-01-03 15:55:00,31.0,17.6,30.07,South,180,8.0,10.0,57,-99.99,,,0.00,150.00,VWS V14.01,2013-01-03 20:55:00,
2013-01-03 16:00:00,31.0,18.0,30.08,SW,225,9.0,12.0,58,-99.99,,,0.00,70.00,VWS V14.01,2013-01-03 21:00:00,
2013-01-03 16:05:00,31.0,18.4,30.07,SW,225,8.0,12.0,59,-99.99,,,0.00,50.00,VWS V14.01,2013-01-03 21:05:00,
2013-01-03 16:10:00,31.0,18.4,30.07,SE,135,4.0,6.0,59,-99.99,,,0.00,40.00,VWS V14.01,2013-01-03 21:10:00,
2013-01-03 16:15:00,31.0,18.4,30.07,South,180,5.0,8.0,59,-99.99,,,0.00,30.00,VWS V14.01,2013-01-03 21:15:00,
2013-01-03 16:19:00,31.0,18.4,30.07,WSW,248,2.0,5.0,59,-99.99,,,0.00,30.00,VWS V14.01,2013-01-03 21:19:00,
2013-01-03 16:24:00,31.0,18.4,30.07,SW,225,3.0,5.0,59,-99.99,,,0.00,20.00,VWS V14.01,2013-01-03 21:24:00,
2013-01-03 16:29:00,31.0,18.4,30.07,SW,225,5.0,6.0,59,-99.99,,,0.00,20.00,VWS V14.01,2013-01-03 21:29:00,
2013-01-03 16:35:00,31.0,18.4,30.07,WSW,248,4.0,6.0,59,-99.99,,,0.00,40.00,VWS V14.01,2013-01-03 21:35:00,
2013-01-03 16:40:00,32.0,19.7,30.07,ESE,112,1.0,2.0,60,-99.99,,,0.00,20.00,VWS V14.01,2013-01-03 21:40:00,
2013-01-03 16:45:00,32.0,19.7,30.07,SW,225,5.0,6.0,60,-99.99,,,0.00,10.00,VWS V14.01,2013-01-03 21:45:00,
2013-01-03 16:50:00,31.0,18.8,30.07,SSW,202,2.0,2.0,60,-99.99,,,0.00,10.00,VWS V14.01,2013-01-03 21:50:00,
2013-01-03 16:55:00,31.0,18.8,30.07,South,180,2.0,4.0,60,-99.99,,,0.00,0.00,VWS V14.01,2013-01-03 21:55:00,
2013-01-03 16:59:00,31.0,18.8,30.07,SSE,158,7.0,10.0,60,-99.99,,,0.00,0.00,VWS V14.01,2013-01-03 21:59:00,
2013-01-03 17:05:00,31.0,18.8,30.07,SW,225,7.0,7.0,60,-99.99,,,0.00,0.00,VWS V14.01,2013-01-03 22:05:00,
2013-01-03 17:10:00,31.0,18.8,30.07,SSW,202,3.0,7.0,60,-99.99,,,0.00,0.00,VWS V14.01,2013-01-03 22:10:00,
2013-01-03 17:14:00,31.0,18.8,30.07,SE,135,4.0,5.0,60,-99.99,,,0.00,0.00,VWS V14.01,2013-01-03 22:14:00,
2013-01-03 17:20:00,30.0,17.8,30.07,SSE,158,4.0,7.0,60,-99.99,,,0.00,0.00,VWS V14.01,2013-01-03 22:20:00,
2013-01-03 17:25:00,31.0,18.8,30.08,SSE,158,4.0,7.0,60,-99.99,,,0.00,0.00,VWS V14.01,2013-01-03 22:25:00,
2013-01-03 17:30:00,30.0,17.8,30.08,SSE,158,8.0,9.0,60,-99.99,,,0.00,0.00,VWS V14.01,2013-01-03 22:30:00,
2013-01-03 17:35:00,31.0,18.8,30.08,South,180,4.0,7.0,60,-99.99,,,0.00,0.00,VWS V14.01,2013-01-03 22:35:00,
2013-01-03 17:40:00,30.0,17.8,30.08,SSE,158,5.0,8.0,60,-99.99,,,0.00,0.00,VWS V14.01,2013-01-03 22:40:00,
2013-01-03 17:45:00,31.0,18.8,30.08,South,180,8.0,9.0,60,-99.99,,,0.00,0.00,VWS V14.01,2013-01-03 22:45:00,
2013-01-03 17:50:00,30.0,17.8,30.08,SSE,158,9.0,10.0,60,-99.99,,,0.00,0.00,VWS V14.01,2013-01-03 22:50:00,
2013-01-03 17:55:00,30.0,18.2,30.08,SSE,158,7.0,9.0,61,-99.99,,,0.00,0.00,VWS V14.01,2013-01-03 22:55:00,
2013-01-03 18:00:00,30.0,18.2,30.08,SE,135,8.0,10.0,61,-99.99,,,0.00,0.00,VWS V14.01,2013-01-03 23:00:00,
2013-01-03 18:05:00,30.0,18.2,30.08,SSE,158,6.0,9.0,61,-99.99,,,0.00,0.00,VWS V14.01,2013-01-03 23:05:00,
2013-01-03 18:10:00,30.0,18.2,30.08,SE,135,4.0,9.0,61,-99.99,,,0.00,0.00,VWS V14.01,2013-01-03 23:10:00,
2013-01-03 18:15:00,30.0,18.6,30.08,SSE,158,5.0,9.0,62,-99.99,,,0.00,0.00,VWS V14.01,2013-01-03 23:15:00,
2013-01-03 18:20:00,30.0,18.6,30.08,SSE,158,7.0,10.0,62,-99.99,,,0.00,0.00,VWS V14.01,2013-01-03 23:20:00,
2013-01-03 18:25:00,30.0,18.6,30.08,SSE,158,7.0,9.0,62,-99.99,,,0.00,0.00,VWS V14.01,2013-01-03 23:25:00,
2013-01-03 18:30:00,30.0,18.6,30.08,SSE,158,7.0,11.0,62,-99.99,,,0.00,0.00,VWS V14.01,2013-01-03 23:30:00,
2013-01-03 18:35:00,30.0,19.0,30.08,SE,135,5.0,10.0,63,-99.99,,,0.00,0.00,VWS V14.01,2013-01-03 23:35:00,
2013-01-03 18:40:00,30.0,18.6,30.08,SSE,158,5.0,8.0,62,-99.99,,,0.00,0.00,VWS V14.01,2013-01-03 23:40:00,
2013-01-03 18:45:00,30.0,18.6,30.08,SSE,158,7.0,10.0,62,-99.99,,,0.00,0.00,VWS V14.01,2013-01-03 23:45:00,
2013-01-03 18:50:00,30.0,18.6,30.08,ESE,112,9.0,9.0,62,-99.99,,,0.00,0.00,VWS V14.01,2013-01-03 23:50:00,
2013-01-03 18:55:00,30.0,18.6,30.08,SSE,158,9.0,11.0,62,-99.99,,,0.00,0.00,VWS V14.01,2013-01-03 23:55:00,
2013-01-03 19:00:00,30.0,19.0,30.08,SSE,158,6.0,6.0,63,-99.99,,,0.00,0.00,VWS V14.01,2013-01-04 00:00:00,
2013-01-03 19:05:00,31.0,19.9,30.09,SE,135,2.0,3.0,63,-99.99,,,0.00,0.00,VWS V14.01,2013-01-04 00:05:00,
2013-01-03 19:09:00,31.0,19.9,30.09,SW,225,4.0,7.0,63,-99.99,,,0.00,0.00,VWS V14.01,2013-01-04 00:09:00,
2013-01-03 19:15:00,31.0,19.5,30.09,SSW,202,2.0,4.0,62,-99.99,,,0.00,0.00,VWS V14.01,2013-01-04 00:15:00,
2013-01-03 19:20:00,31.0,19.5,30.09,SW,225,4.0,4.0,62,-99.99,,,0.00,0.00,VWS V14.01,2013-01-04 00:20:00,
2013-01-03 19:25:00,31.0,19.1,30.09,West,270,2.0,6.0,61,-99.99,,,0.00,0.00,VWS V14.01,2013-01-04 00:25:00,
2013-01-03 19:30:00,31.0,19.5,30.09,SE,135,2.0,5.0,62,-99.99,,,0.00,0.00,VWS V14.01,2013-01-04 00:30:00,
2013-01-03 19:35:00,31.0,19.5,30.09,SE,135,3.0,6.0,62,-99.99,,,0.00,0.00,VWS V14.01,2013-01-04 00:35:00,
2013-01-03 19:40:00,31.0,19.5,30.09,SSW,202,2.0,7.0,62,-99.99,,,0.00,0.00,VWS V14.01,2013-01-04 00:40:00,
2013-01-03 19:45:00,31.0,19.9,30.09,SSW,202,3.0,5.0,63,-99.99,,,0.00,0.00,VWS V14.01,2013-01-04 00:45:00,
2013-01-03 19:50:00,31.0,19.9,30.09,SSE,158,4.0,6.0,63,-99.99,,,0.00,0.00,VWS V14.01,2013-01-04 00:50:00,
2013-01-03 19:55:00,31.0,19.9,30.09,SW,225,3.0,6.0,63,-99.99,,,0.00,0.00,VWS V14.01,2013-01-04 00:55:00,
2013-01-03 20:00:00,31.0,19.9,30.09,SSW,202,3.0,5.0,63,-99.99,,,0.00,0.00,VWS V14.01,2013-01-04 01:00:00,
2013-01-03 20:05:00,31.0,19.9,30.09,South,180,4.0,9.0,63,-99.99,,,0.00,0.00,VWS V14.01,2013-01-04 01:05:00,
2013-01-03 20:10:00,31.0,19.9,30.09,SE,135,3.0,6.0,63,-99.99,,,0.00,0.00,VWS V14.01,2013-01-04 01:10:00,
2013-01-03 20:15:00,31.0,19.9,30.08,South,180,4.0,10.0,63,-99.99,,,0.00,0.00,VWS V14.01,2013-01-04 01:15:00,
2013-01-03 20:20:00,31.0,19.9,30.08,SSE,158,3.0,6.0,63,-99.99,,,0.00,0.00,VWS V14.01,2013-01-04 01:20:00,
2013-01-03 20:25:00,31.0,19.9,30.08,SSW,202,4.0,11.0,63,-99.99,,,0.00,0.00,VWS V14.01,2013-01-04 01:25:00,
2013-01-03 20:30:00,31.0,20.3,30.08,SW,225,3.0,9.0,64,-99.99,,,0.00,0.00,VWS V14.01,2013-01-04 01:30:00,
2013-01-03 20:35:00,31.0,20.3,30.08,SW,225,6.0,10.0,64,-99.99,,,0.00,0.00,VWS V14.01,2013-01-04 01:35:00,
2013-01-03 20:40:00,31.0,20.3,30.08,SW,225,5.0,9.0,64,-99.99,,,0.00,0.00,VWS V14.01,2013-01-04 01:40:00,
2013-01-03 20:45:00,31.0,20.3,30.08,South,180,12.0,13.0,64,-99.99,,,0.00,0.00,VWS V14.01,2013-01-04 01:45:00,
2013-01-03 20:50:00,31.0,20.6,30.08,South,180,2.0,10.0,65,-99.99,,,0.00,0.00,VWS V14.01,2013-01-04 01:50:00,
2013-01-03 20:55:00,31.0,20.3,30.08,SW,225,8.0,9.0,64,-99.99,,,0.00,0.00,VWS V14.01,2013-01-04 01:55:00,
2013-01-03 21:00:00,32.0,21.2,30.08,SW,225,5.0,7.0,64,-99.99,,,0.00,0.00,VWS V14.01,2013-01-04 02:00:00,
2013-01-03 21:05:00,31.0,20.6,30.08,SSW,202,2.0,5.0,65,-99.99,,,0.00,0.00,VWS V14.01,2013-01-04 02:05:00,
2013-01-03 21:10:00,32.0,21.9,30.08,SSW,202,4.0,5.0,66,-99.99,,,0.00,0.00,VWS V14.01,2013-01-04 02:10:00,
2013-01-03 21:15:00,31.0,21.0,30.08,South,180,5.0,10.0,66,-99.99,,,0.00,0.00,VWS V14.01,2013-01-04 02:15:00,
2013-01-03 21:20:00,31.0,21.0,30.08,SSE,158,4.0,7.0,66,-99.99,,,0.00,0.00,VWS V14.01,2013-01-04 02:20:00,
2013-01-03 21:25:00,32.0,21.9,30.08,WSW,248,8.0,11.0,66,-99.99,,,0.00,0.00,VWS V14.01,2013-01-04 02:25:00,
2013-01-03 21:30:00,32.0,21.9,30.08,SW,225,6.0,7.0,66,-99.99,,,0.00,0.00,VWS V14.01,2013-01-04 02:30:00,
2013-01-03 21:35:00,32.0,21.9,30.08,SSE,158,5.0,10.0,66,-99.99,,,0.00,0.00,VWS V14.01,2013-01-04 02:35:00,
2013-01-03 21:40:00,32.0,21.9,30.08,SSW,202,8.0,11.0,66,-99.99,,,0.00,0.00,VWS V14.01,2013-01-04 02:40:00,
2013-01-03 21:45:00,32.0,21.9,30.08,SSW,202,7.0,8.0,66,-99.99,,,0.00,0.00,VWS V14.01,2013-01-04 02:45:00,
2013-01-03 21:50:00,31.0,21.3,30.08,SSW,202,3.0,8.0,67,-99.99,,,0.00,0.00,VWS V14.01,2013-01-04 02:50:00,
2013-01-03 21:55:00,31.0,21.7,30.08,South,180,2.0,7.0,68,-99.99,,,0.00,0.00,VWS V14.01,2013-01-04 02:55:00,
2013-01-03 22:00:00,31.0,21.7,30.08,South,180,3.0,8.0,68,-99.99,,,0.00,0.00,VWS V14.01,2013-01-04 03:00:00,
2013-01-03 22:05:00,31.0,21.7,30.07,SSW,202,8.0,8.0,68,-99.99,,,0.00,0.00,VWS V14.01,2013-01-04 03:05:00,
2013-01-03 22:10:00,31.0,22.0,30.07,South,180,9.0,12.0,69,-99.99,,,0.00,0.00,VWS V14.01,2013-01-04 03:10:00,
2013-01-03 22:15:00,32.0,23.0,30.07,ESE,112,2.0,10.0,69,-99.99,,,0.00,0.00,VWS V14.01,2013-01-04 03:15:00,
2013-01-03 22:20:00,32.0,22.6,30.07,SSW,202,3.0,8.0,68,-99.99,,,0.00,0.00,VWS V14.01,2013-01-04 03:20:00,
2013-01-03 22:25:00,32.0,22.6,30.08,SSE,158,6.0,10.0,68,-99.99,,,0.00,0.00,VWS V14.01,2013-01-04 03:25:00,
2013-01-03 22:30:00,32.0,22.6,30.08,SSE,158,7.0,7.0,68,-99.99,,,0.00,0.00,VWS V14.01,2013-01-04 03:30:00,
2013-01-03 22:35:00,32.0,22.6,30.08,SSW,202,4.0,8.0,68,-99.99,,,0.00,0.00,VWS V14.01,2013-01-04 03:35:00,
2013-01-03 22:40:00,33.0,23.2,30.07,SE,135,2.0,12.0,67,-99.99,,,0.00,0.00,VWS V14.01,2013-01-04 03:40:00,
2013-01-03 22:45:00,33.0,23.2,30.07,SE,135,3.0,6.0,67,-99.99,,,0.00,0.00,VWS V14.01,2013-01-04 03:45:00,
2013-01-03 22:50:00,33.0,23.2,30.07,SW,225,12.0,15.0,67,-99.99,,,0.00,0.00,VWS V14.01,2013-01-04 03:50:00,
2013-01-03 22:55:00,33.0,23.2,30.07,South,180,3.0,7.0,67,-99.99,,,0.00,0.00,VWS V14.01,2013-01-04 03:55:00,
2013-01-03 23:00:00,33.0,23.2,30.07,SSW,202,3.0,7.0,67,-99.99,,,0.00,0.00,VWS V14.01,2013-01-04 04:00:00,
2013-01-03 23:05:00,33.0,22.9,30.07,SSW,202,10.0,10.0,66,-99.99,,,0.00,0.00,VWS V14.01,2013-01-04 04:05:00,
2013-01-03 23:10:00,33.0,22.9,30.07,SE,135,2.0,9.0,66,-99.99,,,0.00,0.00,VWS V14.01,2013-01-04 04:10:00,
2013-01-03 23:15:00,33.0,22.9,30.08,SW,225,8.0,12.0,66,-99.99,,,0.00,0.00,VWS V14.01,2013-01-04 04:15:00,
2013-01-03 23:20:00,33.0,22.9,30.08,SW,225,3.0,8.0,66,-99.99,,,0.00,0.00,VWS V14.01,2013-01-04 04:20:00,
2013-01-03 23:25:00,34.0,23.9,30.08,SSW,202,8.0,8.0,66,-99.99,,,0.00,0.00,VWS V14.01,2013-01-04 04:25:00,
2013-01-03 23:30:00,34.0,23.9,30.08,WSW,248,4.0,5.0,66,-99.99,,,0.00,0.00,VWS V14.01,2013-01-04 04:30:00,
2013-01-03 23:34:00,34.0,23.5,30.07,SW,225,5.0,8.0,65,-99.99,,,0.00,0.00,VWS V14.01,2013-01-04 04:34:00,
2013-01-03 23:39:00,34.0,23.5,30.08,SW,225,7.0,8.0,65,-99.99,,,0.00,0.00,VWS V14.01,2013-01-04 04:39:00,
2013-01-03 23:44:00,34.0,23.5,30.07,SSW,202,4.0,9.0,65,-99.99,,,0.00,0.00,VWS V14.01,2013-01-04 04:44:00,
2013-01-03 23:49:00,34.0,23.5,30.07,SW,225,9.0,15.0,65,-99.99,,,0.00,0.00,VWS V14.01,2013-01-04 04:49:00,
2013-01-03 23:54:00,33.0,22.9,30.07,SW,225,8.0,11.0,66,-99.99,,,0.00,0.00,VWS V14.01,2013-01-04 04:54:00,
2013-01-03 23:59:00,33.0,22.9,30.07,SSW,202,15.0,16.0,66,-99.99,,,0.00,0.00,VWS V14.01,2013-01-04 04:59:00,